SWR24U ELLX-LSGS

Flight info

Callsign SWR24U
Flight time 0h 57m
Altitude 23000
Route GTQ A242 ARPUS DCT TORPA DCT MOROK Z24 AKITO DCT FOFRA DCT VADAR
Aircraft A320/M-SDE3FGHIRWY/LB1

Departure

Time 2026-04-14 15:39
Airport Luxembourg-Findel International Airport (ELLX)

Arrival

Time 2026-04-14 16:37
Airport Sion Airport (LSGS)
Time Latitude Longitude Altitude Speed Heading
2026-04-14 15:06 49.63408 6.21850 1196 ft 0 kts 329°
2026-04-14 15:24 49.63403 6.21855 1195 ft 2 kts 329°
2026-04-14 15:24 49.63388 6.21868 1195 ft 2 kts 329°
2026-04-14 15:24 49.63374 6.21882 1195 ft 2 kts 338°
2026-04-14 15:25 49.63358 6.21891 1196 ft 2 kts 303°
2026-04-14 15:25 49.63354 6.21909 1196 ft 0 kts 250°
2026-04-14 15:29 49.63346 6.21877 1196 ft 8 kts 250°
2026-04-14 15:29 49.63328 6.21809 1196 ft 6 kts 242°
2026-04-14 15:29 49.63299 6.21791 1196 ft 4 kts 170°
2026-04-14 15:30 49.63273 6.21813 1196 ft 7 kts 149°
2026-04-14 15:30 49.63233 6.21848 1196 ft 5 kts 151°
2026-04-14 15:30 49.63207 6.21870 1197 ft 3 kts 151°
2026-04-14 15:30 49.63197 6.21879 1197 ft 2 kts 151°
2026-04-14 15:31 49.63146 6.21869 1198 ft 10 kts 227°
2026-04-14 15:31 49.63119 6.21784 1198 ft 9 kts 245°
2026-04-14 15:31 49.63083 6.21665 1197 ft 12 kts 245°
2026-04-14 15:31 49.63048 6.21554 1197 ft 11 kts 244°
2026-04-14 15:32 49.63016 6.21455 1197 ft 10 kts 243°
2026-04-14 15:32 49.62987 6.21362 1197 ft 10 kts 247°
2026-04-14 15:32 49.62944 6.21214 1197 ft 16 kts 245°
2026-04-14 15:32 49.62899 6.21067 1196 ft 14 kts 242°
2026-04-14 15:33 49.62858 6.20944 1196 ft 12 kts 244°
2026-04-14 15:33 49.62825 6.20835 1196 ft 11 kts 245°
2026-04-14 15:33 49.62791 6.20741 1196 ft 9 kts 233°
2026-04-14 15:33 49.62750 6.20678 1196 ft 8 kts 219°
2026-04-14 15:34 49.62710 6.20634 1197 ft 7 kts 215°
2026-04-14 15:34 49.62661 6.20572 1197 ft 17 kts 224°
2026-04-14 15:34 49.62585 6.20440 1197 ft 15 kts 230°
2026-04-14 15:34 49.62508 6.20297 1198 ft 24 kts 231°
2026-04-14 15:35 49.62419 6.20069 1198 ft 26 kts 240°
2026-04-14 15:35 49.62328 6.19825 1198 ft 27 kts 240°
2026-04-14 15:35 49.62249 6.19609 1197 ft 13 kts 240°
2026-04-14 15:35 49.62186 6.19552 1199 ft 9 kts 160°
2026-04-14 15:36 49.62172 6.19565 1200 ft 0 kts 148°
2026-04-14 15:36 49.62146 6.19590 1203 ft 14 kts 148°
2026-04-14 15:36 49.62096 6.19637 1206 ft 5 kts 146°
2026-04-14 15:37 49.62097 6.19683 1207 ft 0 kts 60°
2026-04-14 15:38 49.62102 6.19696 1208 ft 10 kts 60°
2026-04-14 15:39 49.62261 6.20125 1212 ft 81 kts 60°
2026-04-14 15:39 49.62643 6.21151 1217 ft 136 kts 60°
2026-04-14 15:39 49.63175 6.22592 1466 ft 159 kts 60°
2026-04-14 15:39 49.63720 6.24048 2178 ft 158 kts 60°
2026-04-14 15:40 49.64285 6.25521 2803 ft 165 kts 59°
2026-04-14 15:40 49.64636 6.27245 3189 ft 184 kts 93°
2026-04-14 15:40 49.64054 6.29088 3412 ft 207 kts 140°
2026-04-14 15:40 49.62832 6.30428 3735 ft 227 kts 140°
2026-04-14 15:41 49.61516 6.32061 3946 ft 256 kts 138°
2026-04-14 15:41 49.60133 6.33888 4318 ft 265 kts 137°
2026-04-14 15:41 49.58658 6.35574 5232 ft 270 kts 153°
2026-04-14 15:41 49.56913 6.36706 6146 ft 272 kts 157°
2026-04-14 15:42 49.55144 6.37788 7077 ft 274 kts 158°
2026-04-14 15:42 49.53379 6.38850 7915 ft 277 kts 158°
2026-04-14 15:42 49.51567 6.39935 8763 ft 280 kts 158°
2026-04-14 15:42 49.49734 6.41036 9626 ft 284 kts 159°
2026-04-14 15:43 49.47881 6.42153 10328 ft 293 kts 159°
2026-04-14 15:43 49.45903 6.43348 10582 ft 316 kts 158°
2026-04-14 15:43 49.43819 6.44608 10991 ft 331 kts 158°
2026-04-14 15:43 49.41645 6.45923 11627 ft 339 kts 158°
2026-04-14 15:44 49.39424 6.47264 12267 ft 346 kts 158°
2026-04-14 15:44 49.37188 6.48611 12959 ft 350 kts 158°
2026-04-14 15:44 49.34893 6.49989 13667 ft 355 kts 158°
2026-04-14 15:44 49.32572 6.51383 14301 ft 360 kts 158°
2026-04-14 15:45 49.30226 6.52791 14912 ft 364 kts 158°
2026-04-14 15:45 49.27883 6.54197 15532 ft 367 kts 158°
2026-04-14 15:45 49.25492 6.55634 16157 ft 370 kts 158°
2026-04-14 15:45 49.23068 6.57087 16799 ft 373 kts 158°
2026-04-14 15:46 49.20668 6.58523 17419 ft 376 kts 158°
2026-04-14 15:46 49.18209 6.59990 18038 ft 380 kts 158°
2026-04-14 15:46 49.15716 6.61477 18620 ft 383 kts 158°
2026-04-14 15:46 49.13246 6.62953 19128 ft 387 kts 158°
2026-04-14 15:47 49.10721 6.64458 19633 ft 390 kts 158°
2026-04-14 15:47 49.08195 6.65960 20148 ft 394 kts 158°
2026-04-14 15:47 49.05617 6.67490 20651 ft 397 kts 158°
2026-04-14 15:47 49.03020 6.69027 21146 ft 401 kts 158°
2026-04-14 15:48 49.00427 6.70474 21616 ft 404 kts 163°
2026-04-14 15:48 48.97664 6.71343 22077 ft 407 kts 174°
2026-04-14 15:48 48.94819 6.71487 22544 ft 410 kts 182°
2026-04-14 15:48 48.91946 6.71358 23007 ft 413 kts 182°
2026-04-14 15:49 48.89050 6.71233 23186 ft 414 kts 182°
2026-04-14 15:49 48.86248 6.71117 23208 ft 404 kts 182°
2026-04-14 15:49 48.83443 6.71008 23209 ft 401 kts 182°
2026-04-14 15:49 48.80653 6.70905 23209 ft 400 kts 182°
2026-04-14 15:50 48.77867 6.70806 23209 ft 400 kts 182°
2026-04-14 15:50 48.75083 6.70703 23209 ft 399 kts 182°
2026-04-14 15:50 48.72305 6.70597 23209 ft 399 kts 182°
2026-04-14 15:50 48.69553 6.70488 23208 ft 403 kts 182°
2026-04-14 15:51 48.66683 6.70367 23209 ft 419 kts 182°
2026-04-14 15:51 48.63714 6.70243 23207 ft 433 kts 182°
2026-04-14 15:51 48.60647 6.70119 23204 ft 447 kts 182°
2026-04-14 15:51 48.57533 6.69995 23204 ft 459 kts 182°
2026-04-14 15:52 48.54299 6.69871 23201 ft 470 kts 182°
2026-04-14 15:52 48.50974 6.69747 23202 ft 479 kts 182°
2026-04-14 15:52 48.47642 6.69622 23201 ft 488 kts 182°
2026-04-14 15:52 48.44231 6.69498 23199 ft 493 kts 182°
2026-04-14 15:53 48.40792 6.69375 23201 ft 494 kts 182°
2026-04-14 15:53 48.37345 6.69248 23202 ft 495 kts 182°
2026-04-14 15:53 48.33893 6.69113 23196 ft 495 kts 182°
2026-04-14 15:53 48.30476 6.68976 23196 ft 495 kts 182°
2026-04-14 15:54 48.23612 6.68708 23188 ft 480 kts 182°
2026-04-14 15:54 48.20334 6.68580 23199 ft 473 kts 182°
2026-04-14 15:54 48.17041 6.68456 23196 ft 471 kts 182°
2026-04-14 15:55 48.13751 6.68334 23195 ft 470 kts 182°
2026-04-14 15:55 48.10478 6.68210 23193 ft 470 kts 182°
2026-04-14 15:55 48.07203 6.68085 23192 ft 470 kts 182°
2026-04-14 15:55 48.03966 6.67964 23193 ft 470 kts 182°
2026-04-14 15:56 48.00687 6.67843 23189 ft 470 kts 182°
2026-04-14 15:56 47.97399 6.67717 23191 ft 470 kts 182°
2026-04-14 15:56 47.94166 6.67590 23190 ft 470 kts 182°
2026-04-14 15:56 47.90894 6.67464 23188 ft 470 kts 182°
2026-04-14 15:57 47.87611 6.67339 23191 ft 470 kts 182°
2026-04-14 15:57 47.84364 6.67217 23193 ft 470 kts 182°
2026-04-14 15:57 47.81092 6.67099 23193 ft 470 kts 181°
2026-04-14 15:57 47.77822 6.66981 23198 ft 469 kts 181°
2026-04-14 15:58 47.74556 6.66859 23196 ft 469 kts 182°
2026-04-14 15:58 47.71286 6.66735 23194 ft 468 kts 181°
2026-04-14 15:58 47.68056 6.66612 23192 ft 468 kts 182°
2026-04-14 15:58 47.64799 6.66486 23193 ft 467 kts 182°
2026-04-14 15:59 47.61537 6.66359 23188 ft 467 kts 182°
2026-04-14 15:59 47.58278 6.66235 23183 ft 467 kts 181°
2026-04-14 15:59 47.55022 6.66113 23183 ft 467 kts 181°
2026-04-14 15:59 47.51800 6.65996 23181 ft 467 kts 181°
2026-04-14 16:00 47.48547 6.65879 23176 ft 467 kts 181°
2026-04-14 16:00 47.45301 6.65760 23176 ft 467 kts 181°
2026-04-14 16:00 47.42050 6.65640 23176 ft 467 kts 181°
2026-04-14 16:00 47.38800 6.65520 23177 ft 467 kts 181°
2026-04-14 16:01 47.35545 6.65399 23187 ft 467 kts 183°
2026-04-14 16:01 47.33390 6.65318 23195 ft 467 kts 182°
2026-04-14 16:01 47.29078 6.65158 23208 ft 465 kts 182°
2026-04-14 16:01 47.26920 6.65079 23208 ft 464 kts 182°
2026-04-14 16:02 47.23681 6.64958 23205 ft 463 kts 182°
2026-04-14 16:02 47.20442 6.64963 23198 ft 463 kts 177°
2026-04-14 16:02 47.17268 6.65308 23188 ft 463 kts 176°
2026-04-14 16:02 47.14055 6.65663 23194 ft 462 kts 177°
2026-04-14 16:03 47.10841 6.66021 23180 ft 461 kts 176°
2026-04-14 16:03 47.07644 6.66375 23177 ft 461 kts 176°
2026-04-14 16:03 47.04444 6.66728 23171 ft 461 kts 177°
2026-04-14 16:03 47.01235 6.67077 23167 ft 461 kts 177°
2026-04-14 16:04 46.98064 6.67425 23161 ft 460 kts 176°
2026-04-14 16:04 46.94891 6.68102 23167 ft 460 kts 171°
2026-04-14 16:04 46.91732 6.68887 23197 ft 460 kts 171°
2026-04-14 16:04 46.88578 6.69673 23193 ft 460 kts 171°
2026-04-14 16:05 46.85427 6.70460 23191 ft 459 kts 172°
2026-04-14 16:05 46.82278 6.71246 23185 ft 460 kts 172°
2026-04-14 16:05 46.79123 6.72032 23187 ft 459 kts 171°
2026-04-14 16:05 46.75969 6.72818 23187 ft 459 kts 171°
2026-04-14 16:06 46.72857 6.73594 23195 ft 459 kts 171°
2026-04-14 16:06 46.69713 6.74377 23196 ft 458 kts 171°
2026-04-14 16:06 46.66647 6.75679 23191 ft 460 kts 158°
2026-04-14 16:06 46.63862 6.77960 23191 ft 460 kts 144°
2026-04-14 16:07 46.61432 6.81001 23184 ft 460 kts 138°
2026-04-14 16:07 46.59060 6.84146 23168 ft 461 kts 139°
2026-04-14 16:07 46.56714 6.87321 23165 ft 461 kts 134°
2026-04-14 16:07 46.54737 6.90996 23157 ft 462 kts 122°
2026-04-14 16:08 46.53082 6.94925 23149 ft 463 kts 122°
2026-04-14 16:08 46.51407 6.98916 23137 ft 463 kts 122°
2026-04-14 16:08 46.49724 7.02920 23128 ft 463 kts 122°
2026-04-14 16:08 46.48044 7.06912 23130 ft 463 kts 122°
2026-04-14 16:09 46.46357 7.10911 23132 ft 463 kts 122°
2026-04-14 16:09 46.44681 7.14881 23130 ft 463 kts 122°
2026-04-14 16:09 46.43001 7.18851 23130 ft 453 kts 122°
2026-04-14 16:09 46.41388 7.22661 23123 ft 432 kts 122°
2026-04-14 16:10 46.39867 7.26255 23114 ft 413 kts 122°
2026-04-14 16:10 46.38391 7.29727 23112 ft 396 kts 122°
2026-04-14 16:10 46.36955 7.33092 23111 ft 390 kts 122°
2026-04-14 16:10 46.35529 7.36431 23112 ft 389 kts 122°
2026-04-14 16:11 46.34105 7.39765 23113 ft 389 kts 122°
2026-04-14 16:11 46.32686 7.43089 23108 ft 388 kts 121°
2026-04-14 16:11 46.31485 7.46575 23110 ft 388 kts 108°
2026-04-14 16:11 46.30958 7.50383 23099 ft 387 kts 92°
2026-04-14 16:12 46.31181 7.54200 23086 ft 386 kts 75°
2026-04-14 16:12 46.32167 7.57802 23099 ft 385 kts 58°
2026-04-14 16:12 46.33793 7.60859 23100 ft 384 kts 43°
2026-04-14 16:12 46.35710 7.63537 23094 ft 377 kts 43°
2026-04-14 16:13 46.37565 7.66146 22969 ft 364 kts 43°
2026-04-14 16:13 46.39326 7.68641 22848 ft 353 kts 43°
2026-04-14 16:13 46.41055 7.71092 22710 ft 342 kts 43°
2026-04-14 16:13 46.42727 7.73464 22561 ft 331 kts 43°
2026-04-14 16:14 46.44350 7.75765 22421 ft 321 kts 43°
2026-04-14 16:14 46.45934 7.78010 22293 ft 313 kts 43°
2026-04-14 16:14 46.47449 7.80155 22180 ft 304 kts 43°
2026-04-14 16:14 46.48946 7.82277 21984 ft 298 kts 43°
2026-04-14 16:15 46.50424 7.84369 21684 ft 295 kts 43°
2026-04-14 16:15 46.51148 7.85395 21536 ft 294 kts 43°
2026-04-14 16:15 46.52592 7.87443 21238 ft 292 kts 43°
2026-04-14 16:15 46.54041 7.89499 20959 ft 290 kts 43°
2026-04-14 16:16 46.55483 7.91547 20667 ft 288 kts 43°
2026-04-14 16:16 46.56911 7.93580 20391 ft 286 kts 43°
2026-04-14 16:16 46.58329 7.95602 20097 ft 284 kts 43°
2026-04-14 16:16 46.59734 7.97606 19814 ft 282 kts 44°
2026-04-14 16:17 46.61119 7.99579 19543 ft 280 kts 43°
2026-04-14 16:17 46.62511 8.01563 19285 ft 278 kts 43°
2026-04-14 16:17 46.63888 8.03527 19006 ft 277 kts 44°
2026-04-14 16:17 46.65258 8.05486 18736 ft 275 kts 45°
2026-04-14 16:18 46.66486 8.07608 18485 ft 273 kts 54°
2026-04-14 16:18 46.67445 8.09997 18184 ft 273 kts 64°
2026-04-14 16:18 46.68112 8.12581 17885 ft 272 kts 73°
2026-04-14 16:18 46.68474 8.15281 17583 ft 271 kts 83°
2026-04-14 16:19 46.68527 8.17980 17320 ft 270 kts 92°
2026-04-14 16:19 46.68274 8.20695 17164 ft 270 kts 101°
2026-04-14 16:19 46.67727 8.23312 17165 ft 272 kts 110°
2026-04-14 16:19 46.66887 8.25779 17160 ft 274 kts 120°
2026-04-14 16:20 46.65761 8.28027 17158 ft 275 kts 130°
2026-04-14 16:20 46.64383 8.29976 17153 ft 277 kts 140°
2026-04-14 16:20 46.62789 8.31566 17150 ft 278 kts 150°
2026-04-14 16:20 46.61052 8.32731 17149 ft 279 kts 160°
2026-04-14 16:21 46.59177 8.33472 17145 ft 280 kts 169°
2026-04-14 16:21 46.57231 8.33742 17139 ft 281 kts 180°
2026-04-14 16:21 46.55287 8.33518 17138 ft 280 kts 190°
2026-04-14 16:21 46.53401 8.32817 17135 ft 281 kts 200°
2026-04-14 16:22 46.51619 8.31660 17138 ft 281 kts 210°
2026-04-14 16:22 46.49999 8.30089 17120 ft 279 kts 220°
2026-04-14 16:22 46.48623 8.28196 17115 ft 267 kts 230°
2026-04-14 16:22 46.47436 8.26204 17109 ft 263 kts 230°
2026-04-14 16:23 46.46243 8.24221 16959 ft 258 kts 230°
2026-04-14 16:23 46.45066 8.22273 16738 ft 256 kts 230°
2026-04-14 16:23 46.43896 8.20342 16494 ft 254 kts 230°
2026-04-14 16:23 46.42743 8.18402 16232 ft 253 kts 231°
2026-04-14 16:24 46.41604 8.16455 15971 ft 252 kts 231°
2026-04-14 16:24 46.40474 8.14514 15719 ft 251 kts 231°
2026-04-14 16:24 46.39351 8.12590 15390 ft 247 kts 231°
2026-04-14 16:24 46.38264 8.10733 15205 ft 237 kts 231°
2026-04-14 16:25 46.37214 8.08944 14892 ft 235 kts 231°
2026-04-14 16:25 46.36166 8.07160 14536 ft 231 kts 231°
2026-04-14 16:25 46.35126 8.05396 14107 ft 230 kts 231°
2026-04-14 16:25 46.34089 8.03638 13674 ft 229 kts 231°
2026-04-14 16:26 46.33081 8.01926 13495 ft 215 kts 231°
2026-04-14 16:26 46.32188 8.00297 13268 ft 205 kts 238°
2026-04-14 16:26 46.31500 7.98509 13007 ft 200 kts 248°
2026-04-14 16:26 46.31032 7.96630 12888 ft 198 kts 257°
2026-04-14 16:27 46.30775 7.94678 12503 ft 197 kts 267°
2026-04-14 16:27 46.30729 7.92699 12189 ft 197 kts 272°
2026-04-14 16:27 46.30724 7.90714 12000 ft 195 kts 271°
2026-04-14 16:27 46.30715 7.88704 11435 ft 212 kts 271°
2026-04-14 16:28 46.30706 7.86522 10925 ft 217 kts 270°
2026-04-14 16:28 46.30693 7.84357 10536 ft 214 kts 271°
2026-04-14 16:28 46.30678 7.82220 10167 ft 211 kts 270°
2026-04-14 16:28 46.30665 7.80108 9771 ft 208 kts 270°
2026-04-14 16:29 46.30652 7.78029 9369 ft 205 kts 270°
2026-04-14 16:29 46.30640 7.75972 8976 ft 203 kts 270°
2026-04-14 16:29 46.30628 7.73972 8605 ft 200 kts 269°
2026-04-14 16:29 46.30614 7.71979 8236 ft 196 kts 269°
2026-04-14 16:30 46.30599 7.70020 7876 ft 192 kts 270°
2026-04-14 16:30 46.30586 7.68128 7542 ft 183 kts 270°
2026-04-14 16:30 46.30572 7.66315 7216 ft 178 kts 270°
2026-04-14 16:30 46.30559 7.64559 6911 ft 176 kts 270°
2026-04-14 16:31 46.30547 7.62799 6594 ft 173 kts 271°
2026-04-14 16:31 46.30484 7.61071 6242 ft 171 kts 263°
2026-04-14 16:31 46.30250 7.59413 6003 ft 164 kts 255°
2026-04-14 16:31 46.29868 7.57854 5973 ft 167 kts 247°
2026-04-14 16:32 46.29379 7.56326 5975 ft 166 kts 246°
2026-04-14 16:32 46.28889 7.54802 5898 ft 168 kts 246°
2026-04-14 16:32 46.28414 7.53325 5839 ft 151 kts 246°
2026-04-14 16:32 46.27994 7.52028 5612 ft 139 kts 245°
2026-04-14 16:33 46.27586 7.50781 5318 ft 136 kts 245°
2026-04-14 16:33 46.27175 7.49561 5077 ft 138 kts 244°
2026-04-14 16:33 46.26656 7.48390 4763 ft 140 kts 233°
2026-04-14 16:33 46.26092 7.47232 4441 ft 141 kts 241°
2026-04-14 16:34 46.25637 7.45977 4106 ft 141 kts 245°
2026-04-14 16:34 46.25196 7.44721 3848 ft 138 kts 244°
2026-04-14 16:34 46.24751 7.43504 3567 ft 137 kts 243°
2026-04-14 16:34 46.24293 7.42275 3317 ft 142 kts 244°
2026-04-14 16:35 46.23772 7.41023 2982 ft 148 kts 245°
2026-04-14 16:35 46.23400 7.39675 2697 ft 143 kts 254°
2026-04-14 16:35 46.23130 7.38306 2439 ft 140 kts 254°
2026-04-14 16:35 46.22831 7.36975 2179 ft 138 kts 254°
2026-04-14 16:36 46.22557 7.35657 1919 ft 138 kts 253°
2026-04-14 16:36 46.22285 7.34373 1691 ft 132 kts 253°
2026-04-14 16:36 46.22029 7.33156 1589 ft 115 kts 253°
2026-04-14 16:36 46.21845 7.32277 1587 ft 67 kts 253°
2026-04-14 16:37 46.21736 7.31757 1587 ft 48 kts 253°
2026-04-14 16:37 46.21676 7.31435 1587 ft 11 kts 255°
2026-04-14 16:37 46.21657 7.31434 1587 ft 2 kts 91°
2026-04-14 16:37 46.21715 7.31674 1587 ft 62 kts 72°
2026-04-14 16:38 46.21859 7.32339 1587 ft 69 kts 73°
2026-04-14 16:38 46.21996 7.32976 1587 ft 64 kts 72°
2026-04-14 16:38 46.22090 7.33434 1587 ft 21 kts 69°
2026-04-14 16:38 46.22131 7.33449 1587 ft 4 kts 338°
2026-04-14 16:39 46.22160 7.33462 1587 ft 6 kts 58°
2026-04-14 16:39 46.22172 7.33519 1587 ft 8 kts 72°
2026-04-14 16:39 46.22197 7.33586 1587 ft 7 kts 42°
2026-04-14 16:39 46.22233 7.33619 1587 ft 6 kts 28°
2026-04-14 16:40 46.22238 7.33623 1587 ft 0 kts 29°